Gainesville, GA

12:09 PM EDT on July 21, 2017 (GMT -0400)
Gilmer Memorial

Weather History for KGVL - April, 2014

Change the Weather History Date:

Friday, April 18, 2014

  Actual Average Record
Temperature  
Mean Temperature 52 °F 61 °F  
Max Temperature 55 °F 72 °F 89 °F (1955)
Min Temperature 48 °F 50 °F 34 °F (1947)
Degree Days  
Heating Degree Days 13 5  
Month to date heating degree days 122 127  
Since 1 July heating degree days 3248 2979  
Cooling Degree Days 0 1  
Month to date cooling degree days 12 16  
Year to date cooling degree days 12 21  
Growing Degree Days 2 (Base 50)    
Moisture  
Dew Point 39 °F    
Average Humidity 71    
Maximum Humidity 100    
Minimum Humidity 41    
Precipitation  
Precipitation 0.81 in 0.11 in 2.41 in (1969)
Month to date precipitation 5.31 2.05  
Year to date precipitation 14.55 17.37  
Snow  
Snow 0.00 in - - ()
Month to date snowfall 0.0  
Since 1 July snowfall T  
Snow Depth -    
Sea Level Pressure  
Sea Level Pressure 30.27 in    
Wind  
Wind Speed 10 mph (ENE)    
Max Wind Speed 18 mph    
Max Gust Speed 22 mph    
Visibility 9 miles    
Events Rain    
T = Trace of Precipitation, MM = Missing Value Source: NWS Daily Summary

Daily Weather History Graph

Daily Weather History Graph

Search for Another Location

Airport or City:

Trip Planner

Search our weather history database for the weather conditions in past years. The results will help you decide how hot, cold, wet, or windy it might be!

Date:

Astronomy

Apr. 18, 2014 Rise Set
Actual Time 7:00 AM EDT 8:09 PM EDT
Civil Twilight 6:34 AM EDT 8:35 PM EDT
Nautical Twilight 6:03 AM EDT 9:06 PM EDT
Astronomical Twilight 5:31 AM EDT 9:38 PM EDT
Moon 11:47 PM EDT (4/18) 9:27 AM EDT (4/18)
Length of Visible Light 14h 00m
Length of Day
13h 08m
Waning Gibbous, 87% of the Moon is Illuminated
Apr 18
Waning Gibbous
Apr 22
Last Quarter
Apr 29
New
May 6
First Quarter
May 14
Full

Hourly Weather History & Observations

Time (EDT) Temp. Dew Point Humidity Pressure Visibility Wind Dir Wind Speed Gust Speed Precip Events Conditions
12:53 AM 55.0 °F 33.1 °F 43% 30.35 in 10.0 mi East 9.2 mph - N/A   Overcast
1:53 AM 54.0 °F 32.0 °F 43% 30.35 in 10.0 mi East 9.2 mph - N/A   Scattered Clouds
2:53 AM 53.1 °F 30.9 °F 43% 30.33 in 10.0 mi ENE 10.4 mph - N/A   Overcast
3:53 AM 53.1 °F 30.0 °F 41% 30.31 in 10.0 mi ENE 10.4 mph - N/A   Mostly Cloudy
4:53 AM 53.1 °F 30.0 °F 41% 30.31 in 10.0 mi ENE 10.4 mph - N/A   Clear
5:53 AM 52.0 °F 30.9 °F 45% 30.31 in 10.0 mi ENE 10.4 mph - N/A   Scattered Clouds
6:53 AM 52.0 °F 33.1 °F 49% 30.32 in 10.0 mi ENE 9.2 mph - N/A   Scattered Clouds
8:53 AM 51.1 °F 37.0 °F 59% 30.35 in 10.0 mi ENE 11.5 mph - N/A   Clear
9:53 AM 52.0 °F 39.0 °F 61% 30.34 in 10.0 mi ENE 10.4 mph - N/A   Scattered Clouds
10:53 AM 53.1 °F 39.9 °F 61% 30.34 in 10.0 mi NE 11.5 mph - N/A   Overcast
11:53 AM 54.0 °F 41.0 °F 62% 30.32 in 10.0 mi ENE 10.4 mph 19.6 mph 0.00 in   Overcast
12:53 PM 54.0 °F 39.9 °F 59% 30.31 in 10.0 mi ENE 10.4 mph 21.9 mph 0.00 in Rain Light Rain
1:53 PM 53.1 °F 44.1 °F 71% 30.27 in 10.0 mi ENE 10.4 mph - 0.00 in   Overcast
2:53 PM 54.0 °F 42.1 °F 64% 30.25 in 10.0 mi ENE 9.2 mph - 0.00 in Rain Light Rain
3:53 PM 52.0 °F 43.0 °F 71% 30.23 in 8.0 mi ENE 5.8 mph - 0.01 in Rain Light Rain
4:53 PM 50.0 °F 45.0 °F 83% 30.19 in 6.0 mi NE 9.2 mph - 0.09 in Rain Rain
5:53 PM 50.0 °F 44.1 °F 80% 30.17 in 9.0 mi NE 10.4 mph - 0.05 in Rain Light Rain
6:53 PM 48.9 °F 46.0 °F 90% 30.17 in 4.0 mi NE 10.4 mph - 0.09 in Rain Rain
8:53 PM 48.0 °F 46.0 °F 93% 30.17 in 6.0 mi NE 9.2 mph - 0.13 in Rain Light Rain
9:53 PM 48.9 °F 46.9 °F 93% 30.18 in 5.0 mi NE 8.1 mph - 0.08 in Rain Rain
11:53 PM 48.9 °F 48.0 °F 97% 30.15 in 7.0 mi NE 9.2 mph - 0.12 in Rain Light Rain